Location: Circo de Cotatuero
(42.6601°N, 0.0422°W)
Time: 07:25:13
(UTC+00:00)

Daily predictions for brighter satellites

Satellite Brightness Start Highest point End
(mag) Time Altitude Azimuth Time Altitude Azimuth Time Altitude Azimuth
In-Cosmos 22 4.2 18:04:32 10° N 18:09:52 87° W 18:15:08 10° S
Tsikada Rocket 4.4 18:04:04 10° SSW 18:10:28 75° W 18:16:54 10° N
USA 215 4.1 18:04:19 10° NE 18:10:33 49° NNW 18:16:47 10° WSW
SL-4 R/B 3.7 18:09:36 10° NW 18:13:21 26° N 18:17:17 10° ENE
ARGOS Delta rocket 4.3 18:12:05 10° NNE 18:17:13 47° E 18:22:02 10° S
SKYMED 3 4.4 18:15:18 10° NNE 18:19:26 85° ESE 18:23:32 10° SSW
BREEZE-M DEB (TANK) 3.7 18:15:45 10° SW 18:19:37 73° SE 18:34:02 10° ENE
Okean O Rocket 2.3 18:16:56 10° SE 18:20:49 33° ENE 18:24:44 10° N
Cosmos 2219 3.4 18:20:15 10° NNW 18:26:02 81° WSW 18:31:46 10° SSE
Cosmos 1242 Rocket 2.5 18:22:38 10° S 18:26:08 62° E 18:29:40 10° NNE
CZ-2C R/B 2.9 18:23:59 10° SW 18:26:10 17° S 18:28:24 10° SSE
BREEZE M DEB (TANK) 4.1 18:20:25 10° SSW 18:28:28 29° SSE 18:31:25 13° E
Spot 1 3.9 18:26:18 10° NNE 18:30:33 81° ESE 18:34:38 10° SSW
SL-14 R/B 3.7 18:28:27 10° N 18:32:11 39° ENE 18:35:56 10° SSE
Cosmos 1805 3.2 18:29:08 10° S 18:32:56 60° E 18:36:46 10° NNE
Cosmos 2263 Rocket 2.8 18:28:02 10° N 18:33:20 38° ENE 18:38:36 10° SE
YAOGAN 1 2.6 18:30:22 10° SSE 18:34:34 55° ENE 18:38:48 10° N
Cosmos 1726 2.5 18:33:17 10° SSE 18:36:39 37° E 18:40:03 10° NNE
Cosmos 1674 Rocket 4.0 18:32:32 10° N 18:36:41 39° ENE 18:40:50 10° SSE
COBE Rocket 3.8 18:31:56 10° SSE 18:36:49 67° ENE 18:41:35 10° N
OBJECT-B 2.6 18:38:57 11° NE 18:38:57 11° NE 18:39:21 10° NE
Cosmos 2082 3.7 18:39:10 10° NNW 18:44:56 79° ENE 18:50:40 10° SSE
USA 267 3.7 18:38:38 10° SE 18:45:08 65° SW 18:51:40 10° NW
Cosmos 1674 4.1 18:41:41 10° NNW 18:45:14 42° W 18:48:44 10° SSW
Cosmos 1766 3.6 18:43:16 10° SSE 18:46:54 40° E 18:50:36 10° NNE
Cosmos 1697 Rocket 3.9 18:45:26 10° SW 18:50:47 45° WNW 18:56:11 10° NNE
Cosmos 2279 Rocket 4.2 18:52:02 10° NNW 18:58:17 74° W 19:04:30 10° S
Cosmos 2221 Rocket 3.6 18:54:40 10° N 18:59:13 86° WSW 19:03:45 10° S
IGS 5A 4.4 18:59:48 26° E 19:00:41 28° ENE 19:04:15 10° N
ASTEX 1 4.3 18:57:10 10° N 19:01:59 52° W 19:06:48 10° SSW
Resurs 01 Rocket 3.7 19:05:25 12° NE 19:05:25 12° NE 19:06:15 10° NE
Cosmos 1378 Rocket 3.4 19:01:32 10° N 19:05:56 82° E 19:10:16 10° S
Cosmos 1733 4.4 19:03:31 10° SSW 19:07:06 43° WNW 19:10:42 10° N
Cosmos 968 Rocket 3.9 19:03:05 10° S 19:07:55 39° ESE 19:12:46 10° NE
Cosmos 1470 4.5 19:15:56 18° NE 19:15:56 18° NE 19:17:15 10° NNE
Cosmos 1733 Rocket 4.3 19:10:05 10° SSW 19:14:18 43° WNW 19:18:34 10° N
Cosmos 540 Rocket 4.5 19:10:21 10° NNW 19:15:14 47° WSW 19:20:06 10° S
Cosmos 2227 Rocket 4.4 19:13:06 10° NW 19:17:37 25° WSW 19:22:06 10° SSW
USA 229 DEB 4.5 19:13:25 10° NW 19:20:45 60° WSW 19:28:31 10° SSE
USA 229 4.4 19:13:31 10° NW 19:20:52 61° WSW 19:28:38 10° SSE
CZ-4B R/B 4.1 19:16:19 10° S 19:21:27 48° W 19:26:44 10° NNW
Cosmos 2322 Rocket 3.5 19:17:22 10° SSE 19:27:51 - NE 19:19:41 21° SE
ISS -3.6 19:19:19 10° NW 19:22:38 55° NNE 19:22:45 54° NE
CSL-04 Rocket 3.7 19:21:40 28° SE 19:24:19 56° ENE 19:29:36 10° N
Okean-O 2.8 19:24:10 43° ESE 19:24:55 48° ENE 19:29:11 10° N
Resurs 1-3 4.1 19:26:17 39° ENE 19:26:17 39° ENE 19:30:18 10° N
CZ-4 R/B 2.1 19:22:09 10° S 19:26:13 54° W 19:30:20 10° NNW
Cosmos 841 Rocket 4.0 19:21:27 10° NNW 19:26:32 60° WSW 19:31:34 10° S
Feng Yun 1-1 Rocket 4.4 19:21:22 10° S 19:26:53 72° WSW 19:32:20 10° NNW
SJ-6B 2.6 19:30:24 63° ENE 19:30:24 63° ENE 19:34:04 10° N
Cosmos 1980 Rocket 3.4 19:25:42 10° SW 19:31:02 43° WNW 19:36:24 10° NNE
Meteor 1-12 Rocket 4.4 19:27:03 10° S 19:33:02 84° W 19:39:06 10° N
Meteor 2-21 Rocket 4.4 19:27:13 10° S 19:33:17 84° W 19:39:22 10° N
Cosmos 1570 Rocket 4.1 19:28:38 10° NNW 19:33:48 54° ENE 19:34:49 47° ESE
Cosmos 1627 Rocket 4.4 19:30:16 10° S 19:36:13 58° E 19:42:13 10° NNE
OAO 2 Rocket 4.2 19:34:50 10° SW 19:39:10 32° S 19:39:12 32° S
USA 186 2.4 19:40:04 54° NNW 19:40:04 54° NNW 19:42:44 10° NNW
Cosmos 1428 Rocket 4.3 19:37:29 10° S 19:43:37 74° E 19:49:50 10° N
Cosmos 2195 Rocket 4.3 19:37:35 10° S 19:43:45 78° E 19:50:03 10° N
Cosmos 2278 4.3 19:40:42 10° SW 19:46:17 59° WNW 19:51:55 10° NNE
Cosmos 1437 Rocket 2.9 19:44:07 10° SSW 19:47:51 65° W 19:51:35 10° N
SL-16 R/B 2.0 19:43:51 10° SSW 19:49:29 73° ESE 19:55:09 10° NNE
Meteor 1-24 Rocket 3.4 19:45:18 10° N 19:50:37 73° E 19:51:25 61° SE
SL-4 R/B 2.6 19:49:06 10° NW 19:53:27 53° NNE 19:53:27 53° NNE
Okean O Rocket 3.9 19:53:44 10° SSW 19:57:11 23° W 20:00:41 10° NW
Cosmos 2208 Rocket 3.9 19:51:50 10° NNW 19:57:13 69° ENE 19:57:21 69° E
Meteor 1-22 Rocket 4.1 19:53:43 10° SSW 19:59:03 81° W 20:04:37 10° N
Cosmos 1844 Rocket 3.4 19:54:37 10° N 19:59:17 38° NE 19:59:17 38° NE
Cosmos 2026 Rocket 3.8 19:55:11 10° S 20:01:16 89° E 20:07:21 10° N
Cosmos 2285 Rocket 4.2 19:56:35 10° NNW 20:02:54 70° WSW 20:05:47 34° S
USA 81 3.9 19:58:10 10° N 20:03:29 86° E 20:03:45 80° SSE
Cosmos 1782 Rocket 4.1 20:06:54 55° NNW 20:06:54 55° NNW 20:10:31 10° N
OBJECT-B 4.0 20:09:48 10° NW 20:09:48 10° NW 20:09:50 10° NW
Cosmos 1553 Rocket 4.1 20:03:58 10° N 20:09:43 56° ENE 20:09:43 56° ENE
H-2A R/B 4.4 20:15:56 22° N 20:15:56 22° N 20:17:22 10° N
Cosmos 2263 Rocket 3.7 20:12:07 10° NW 20:17:10 33° WSW 20:20:24 19° SSW
Meteor 2-5 Rocket 4.3 20:16:52 10° NNW 20:22:14 52° W 20:23:46 40° SW
SPOT 1/Viking Rocket 4.4 20:32:06 42° N 20:32:06 42° N 20:35:29 10° NNW
Resurs 01 Rocket 3.7 20:42:59 23° NNW 20:42:59 23° NNW 20:44:43 10° NNW
Cosmos 2322 Rocket 4.2 21:00:49 10° SW 21:09:30 21° N 21:11:33 10° NNE
